| time (UTC) | temp F | wind direction | speed MPH | gust MPH | rain 1hr in | rain 24hr in | rain mn in | humidity % | barometer mb |
| 20260506164704 | 62 | 127 | 1.0 | 4.0 | 0.00 | 0.00 | 0.00 | 86 | 101.1 |
| 20260506163702 | 61 | 42 | 2.0 | 6.0 | 0.00 | 0.00 | 0.00 | 89 | 101.1 |
| 20260506163202 | 61 | 125 | 3.0 | 5.0 | 0.00 | 0.00 | 0.00 | 90 | 101.1 |
| 20260506162702 | 61 | 18 | 4.0 | 9.0 | 0.00 | 0.00 | 0.00 | 93 | 101.1 |
| 20260506161702 | 60 | 72 | 1.0 | 6.0 | 0.00 | 0.00 | 0.00 | 94 | 101.2 |
| 20260506161202 | 60 | 96 | 3.0 | 17.0 | 0.00 | 0.00 | 0.00 | 94 | 101.2 |
| 20260506160702 | 60 | 51 | 3.0 | 10.0 | 0.00 | 0.00 | 0.00 | 94 | 101.2 |
| 20260506160202 | 60 | 33 | 6.0 | 7.0 | 0.00 | 0.00 | 0.00 | 95 | 101.1 |
| 20260506155703 | 61 | 32 | 4.0 | 15.0 | 0.00 | 0.00 | 0.00 | 94 | 101.1 |
| 20260506155203 | 61 | 67 | 4.0 | 10.0 | 0.00 | 0.00 | 0.00 | 94 | 101.1 |
| 20260506154702 | 62 | 14 | 5.0 | 10.0 | 0.00 | 0.00 | 0.00 | 93 | 101.1 |
| 20260506154202 | 63 | 37 | 4.0 | 15.0 | 0.00 | 0.00 | 0.00 | 93 | 101.1 |
| 20260506153702 | 63 | 30 | 7.0 | 13.0 | 0.00 | 0.00 | 0.00 | 92 | 101.1 |
| 20260506153202 | 63 | 353 | 2.0 | 7.0 | 0.00 | 0.00 | 0.00 | 92 | 101.0 |
| 20260506152702 | 63 | 50 | 2.0 | 11.0 | 0.00 | 0.00 | 0.00 | 92 | 101.0 |
| 20260506152202 | 64 | 36 | 8.0 | 12.0 | 0.00 | 0.00 | 0.00 | 92 | 101.0 |
| 20260506151702 | 64 | 33 | 1.0 | 10.0 | 0.00 | 0.00 | 0.00 | 92 | 101.0 |
| 20260506151202 | 64 | 48 | 2.0 | 9.0 | 0.00 | 0.00 | 0.00 | 92 | 101.0 |
| 20260506150702 | 64 | 291 | 3.0 | 10.0 | 0.00 | 0.00 | 0.00 | 92 | 101.0 |
| 20260506150203 | 65 | 42 | 8.0 | 15.0 | 0.00 | 0.00 | 0.00 | 91 | 101.0 |
| 20260506145703 | 66 | 41 | 3.0 | 9.0 | 0.00 | 0.00 | 0.00 | 91 | 101.0 |
| 20260506145202 | 67 | 49 | 7.0 | 10.0 | 0.00 | 0.00 | 0.00 | 91 | 101.0 |
| 20260506144702 | 68 | 36 | 5.0 | 12.0 | 0.00 | 0.00 | 0.00 | 90 | 101.0 |
| 20260506144202 | 70 | 96 | 0.0 | 10.0 | 0.00 | 0.00 | 0.00 | 87 | 101.0 |
| 20260506143202 | 77 | 44 | 0.0 | 2.0 | 0.00 | 0.00 | 0.00 | 86 | 101.0 |
| 20260506142701 | 76 | 196 | 2.0 | 2.0 | 0.00 | 0.00 | 0.00 | 86 | 101.0 |
| 20260506141203 | 75 | 266 | 1.0 | 4.0 | 0.00 | 0.00 | 0.00 | 90 | 101.0 |
| 20260506140203 | 75 | 198 | 2.0 | 3.0 | 0.00 | 0.00 | 0.00 | 90 | 101.0 |
| 20260506135703 | 75 | 183 | 2.0 | 2.0 | 0.00 | 0.00 | 0.00 | 90 | 101.0 |
| 20260506135202 | 75 | 204 | 3.0 | 5.0 | 0.00 | 0.00 | 0.00 | 91 | 101.0 |
| 20260506134703 | 74 | 190 | 3.0 | 6.0 | 0.00 | 0.00 | 0.00 | 91 | 101.0 |
| 20260506133702 | 74 | 251 | 1.0 | 2.0 | 0.00 | 0.00 | 0.00 | 92 | 101.0 |
| 20260506133202 | 74 | 195 | 2.0 | 3.0 | 0.00 | 0.00 | 0.00 | 93 | 100.9 |
| 20260506132202 | 74 | 215 | 0.0 | 5.0 | 0.00 | 0.00 | 0.00 | 93 | 100.9 |
| 20260506131702 | 73 | 127 | 2.0 | 5.0 | 0.00 | 0.00 | 0.00 | 93 | 100.9 |
| 20260506131202 | 73 | 168 | 4.0 | 4.0 | 0.00 | 0.00 | 0.00 | 93 | 100.9 |
| 20260506130202 | 73 | 175 | 5.0 | 5.0 | 0.00 | 0.00 | 0.00 | 94 | 100.9 |
| 20260506125702 | 73 | 171 | 3.0 | 5.0 | 0.00 | 0.00 | 0.00 | 95 | 100.9 |
| 20260506125202 | 73 | 242 | 1.0 | 4.0 | 0.00 | 0.00 | 0.00 | 95 | 100.9 |
| 20260506124703 | 73 | 183 | 2.0 | 4.0 | 0.00 | 0.00 | 0.00 | 96 | 100.9 |
| 20260506124202 | 73 | 73 | 1.0 | 3.0 | 0.00 | 0.00 | 0.00 | 96 | 100.9 |
| 20260506123702 | 72 | 12 | 1.0 | 3.0 | 0.00 | 0.00 | 0.00 | 96 | 100.9 |
| 20260506123202 | 72 | 231 | 1.0 | 3.0 | 0.00 | 0.00 | 0.00 | 96 | 100.9 |
| 20260506122702 | 73 | 186 | 3.0 | 4.0 | 0.00 | 0.00 | 0.00 | 96 | 100.9 |
| 20260506122203 | 72 | 296 | 1.0 | 4.0 | 0.00 | 0.00 | 0.00 | 96 | 100.9 |
| 20260506121702 | 73 | 195 | 2.0 | 3.0 | 0.00 | 0.00 | 0.00 | 96 | 100.9 |
| 20260506121202 | 73 | 167 | 2.0 | 4.0 | 0.00 | 0.00 | 0.00 | 97 | 100.9 |
| 20260506120703 | 73 | 158 | 2.0 | 3.0 | 0.00 | 0.00 | 0.00 | 97 | 100.9 |
| 20260506120202 | 73 | 155 | 0.0 | 2.0 | 0.00 | 0.00 | 0.00 | 96 | 100.9 |
| 20260506115202 | 73 | 232 | 0.0 | 2.0 | 0.00 | 0.00 | 0.00 | 96 | 100.9 |
| 20260506114702 | 73 | 227 | 1.0 | 3.0 | 0.00 | 0.00 | 0.00 | 96 | 100.9 |
| 20260506114202 | 73 | 185 | 1.0 | 3.0 | 0.00 | 0.00 | 0.00 | 96 | 100.9 |
| 20260506113703 | 73 | 184 | 2.0 | 3.0 | 0.00 | 0.00 | 0.00 | 96 | 100.9 |
| 20260506113202 | 73 | 223 | 1.0 | 4.0 | 0.00 | 0.00 | 0.00 | 96 | 100.9 |
| 20260506112202 | 73 | 250 | 2.0 | 2.0 | 0.00 | 0.00 | 0.00 | 96 | 100.9 |
| 20260506111702 | 73 | 215 | 2.0 | 4.0 | 0.00 | 0.00 | 0.00 | 96 | 100.9 |
| 20260506111202 | 73 | 284 | 0.0 | 2.0 | 0.00 | 0.00 | 0.00 | 96 | 100.9 |
| 20260506110702 | 73 | 316 | 1.0 | 3.0 | 0.00 | 0.00 | 0.00 | 96 | 100.9 |
| 20260506110202 | 73 | 256 | 1.0 | 4.0 | 0.00 | 0.00 | 0.00 | 95 | 100.9 |
| 20260506105702 | 73 | 116 | 1.0 | 2.0 | 0.00 | 0.00 | 0.00 | 95 | 100.9 |
| 20260506105203 | 73 | 254 | 1.0 | 3.0 | 0.00 | 0.00 | 0.00 | 95 | 100.9 |
| 20260506104702 | 73 | 247 | 2.0 | 4.0 | 0.00 | 0.00 | 0.00 | 95 | 100.8 |
| 20260506104202 | 73 | 228 | 2.0 | 3.0 | 0.00 | 0.00 | 0.00 | 95 | 100.8 |
| 20260506103702 | 73 | 249 | 1.0 | 3.0 | 0.00 | 0.00 | 0.00 | 94 | 100.8 |
| 20260506103202 | 73 | 313 | 1.0 | 4.0 | 0.00 | 0.00 | 0.00 | 94 | 100.8 |
| 20260506102702 | 74 | 237 | 3.0 | 4.0 | 0.00 | 0.00 | 0.00 | 93 | 100.8 |
| 20260506102202 | 74 | 257 | 1.0 | 4.0 | 0.00 | 0.00 | 0.00 | 93 | 100.8 |
| 20260506101702 | 74 | 253 | 2.0 | 7.0 | 0.00 | 0.00 | 0.00 | 93 | 100.8 |
| 20260506101202 | 74 | 188 | 3.0 | 5.0 | 0.00 | 0.00 | 0.00 | 92 | 100.8 |
| 20260506100702 | 74 | 222 | 1.0 | 6.0 | 0.00 | 0.00 | 0.00 | 92 | 100.8 |
| 20260506100202 | 74 | 220 | 4.0 | 8.0 | 0.00 | 0.00 | 0.00 | 91 | 100.8 |
| 20260506095702 | 74 | 180 | 2.0 | 4.0 | 0.00 | 0.00 | 0.00 | 91 | 100.8 |
| 20260506095202 | 74 | 206 | 2.0 | 5.0 | 0.00 | 0.00 | 0.00 | 91 | 100.8 |
| 20260506094702 | 74 | 147 | 1.0 | 5.0 | 0.00 | 0.00 | 0.00 | 90 | 100.8 |
| 20260506094202 | 74 | 213 | 1.0 | 4.0 | 0.00 | 0.00 | 0.00 | 90 | 100.8 |
| 20260506093202 | 74 | 202 | 2.0 | 5.0 | 0.00 | 0.00 | 0.00 | 90 | 100.8 |
| 20260506092704 | 74 | 251 | 1.0 | 7.0 | 0.00 | 0.00 | 0.00 | 90 | 100.7 |
| 20260506092202 | 74 | 216 | 3.0 | 8.0 | 0.00 | 0.00 | 0.00 | 90 | 100.7 |
| 20260506091702 | 74 | 182 | 2.0 | 5.0 | 0.00 | 0.00 | 0.00 | 90 | 100.7 |
| 20260506091202 | 75 | 238 | 2.0 | 4.0 | 0.00 | 0.00 | 0.00 | 89 | 100.7 |
| 20260506090702 | 75 | 189 | 5.0 | 6.0 | 0.00 | 0.00 | 0.00 | 89 | 100.7 |
| 20260506090202 | 74 | 167 | 5.0 | 7.0 | 0.00 | 0.00 | 0.00 | 90 | 100.8 |
| 20260506085202 | 74 | 201 | 5.0 | 8.0 | 0.00 | 0.00 | 0.00 | 90 | 100.8 |
| 20260506084702 | 74 | 140 | 1.0 | 6.0 | 0.00 | 0.00 | 0.00 | 90 | 100.8 |
| 20260506084202 | 74 | 210 | 2.0 | 8.0 | 0.00 | 0.00 | 0.00 | 90 | 100.8 |
| 20260506083202 | 75 | 253 | 3.0 | 7.0 | 0.00 | 0.00 | 0.00 | 89 | 100.8 |
| 20260506082702 | 75 | 165 | 4.0 | 5.0 | 0.00 | 0.00 | 0.00 | 89 | 100.7 |
| 20260506081702 | 75 | 249 | 3.0 | 6.0 | 0.00 | 0.00 | 0.00 | 89 | 100.7 |
| 20260506081201 | 75 | 182 | 4.0 | 6.0 | 0.00 | 0.00 | 0.00 | 89 | 100.7 |
| 20260506080702 | 75 | 170 | 4.0 | 10.0 | 0.00 | 0.00 | 0.00 | 89 | 100.7 |
| 20260506080202 | 75 | 193 | 4.0 | 6.0 | 0.00 | 0.00 | 0.00 | 89 | 100.8 |
| 20260506073202 | 75 | 204 | 5.0 | 6.0 | 0.00 | 0.00 | 0.00 | 88 | 100.8 |
| 20260506072702 | 75 | 190 | 7.0 | 7.0 | 0.00 | 0.00 | 0.00 | 88 | 100.8 |
| 20260506072203 | 75 | 201 | 2.0 | 9.0 | 0.00 | 0.00 | 0.00 | 88 | 100.8 |
| 20260506071702 | 75 | 217 | 5.0 | 7.0 | 0.00 | 0.00 | 0.00 | 88 | 100.8 |
| 20260506071202 | 75 | 184 | 5.0 | 8.0 | 0.00 | 0.00 | 0.00 | 88 | 100.8 |
| 20260506070702 | 75 | 225 | 6.0 | 9.0 | 0.00 | 0.00 | 0.00 | 88 | 100.8 |
| 20260506070202 | 75 | 251 | 3.0 | 10.0 | 0.00 | 0.00 | 0.00 | 88 | 100.8 |
| 20260506062202 | 75 | 181 | 6.0 | 11.0 | 0.00 | 0.00 | 0.00 | 88 | 100.8 |
| 20260506061702 | 75 | 179 | 4.0 | 7.0 | 0.00 | 0.00 | 0.00 | 88 | 100.8 |
| 20260506061202 | 75 | 210 | 4.0 | 12.0 | 0.00 | 0.00 | 0.00 | 88 | 100.8 |
| 20260506060703 | 75 | 215 | 5.0 | 9.0 | 0.00 | 0.00 | 0.00 | 89 | 100.8 |
| 20260506051202 | 75 | 188 | 4.0 | 11.0 | 0.00 | 0.00 | 0.00 | 89 | 100.8 |
| 20260506050703 | 75 | 199 | 3.0 | 8.0 | 0.00 | 0.00 | 0.00 | 89 | 100.8 |
| 20260506050202 | 75 | 173 | 3.0 | 9.0 | 0.00 | 0.00 | 0.00 | 89 | 100.7 |
| 20260506044702 | 75 | 177 | 1.0 | 5.0 | 0.00 | 0.00 | 0.00 | 89 | 100.7 |
| 20260506044202 | 75 | 180 | 2.0 | 12.0 | 0.00 | 0.00 | 0.00 | 89 | 100.7 |
| 20260506043702 | 75 | 214 | 5.0 | 7.0 | 0.00 | 0.00 | 0.00 | 89 | 100.7 |
| 20260506042702 | 75 | 157 | 3.0 | 9.0 | 0.00 | 0.00 | 0.00 | 88 | 100.8 |
| 20260506042202 | 75 | 172 | 2.0 | 5.0 | 0.00 | 0.00 | 0.00 | 88 | 100.8 |
| 20260506041702 | 75 | 173 | 1.0 | 7.0 | 0.00 | 0.00 | 0.00 | 88 | 100.8 |
| 20260506041202 | 75 | 175 | 2.0 | 4.0 | 0.00 | 0.00 | 0.00 | 88 | 100.8 |
| 20260506040202 | 75 | 179 | 3.0 | 5.0 | 0.00 | 0.00 | 0.00 | 87 | 100.7 |
| 20260506035702 | 76 | 205 | 0.0 | 4.0 | 0.00 | 0.00 | 0.00 | 87 | 100.7 |
| 20260506035204 | 76 | 177 | 2.0 | 8.0 | 0.00 | 0.00 | 0.00 | 87 | 100.7 |
| 20260506034702 | 76 | 169 | 2.0 | 10.0 | 0.00 | 0.00 | 0.00 | 87 | 100.7 |
| 20260506034202 | 76 | 188 | 2.0 | 8.0 | 0.00 | 0.00 | 0.00 | 86 | 100.7 |
| 20260506033204 | 76 | 194 | 3.0 | 5.0 | 0.00 | 0.00 | 0.00 | 86 | 100.7 |
| 20260506032203 | 76 | 167 | 3.0 | 10.0 | 0.00 | 0.00 | 0.00 | 85 | 100.7 |
| 20260506031702 | 77 | 171 | 1.0 | 4.0 | 0.00 | 0.00 | 0.00 | 85 | 100.7 |
| 20260506031202 | 77 | 163 | 5.0 | 10.0 | 0.00 | 0.00 | 0.00 | 84 | 100.7 |
| 20260506030702 | 77 | 209 | 5.0 | 8.0 | 0.00 | 0.00 | 0.00 | 84 | 100.7 |
| 20260506030202 | 77 | 157 | 0.0 | 4.0 | 0.00 | 0.00 | 0.00 | 83 | 100.7 |
| 20260506025704 | 77 | 268 | 2.0 | 5.0 | 0.00 | 0.00 | 0.00 | 82 | 100.7 |
| 20260506025203 | 77 | 205 | 2.0 | 6.0 | 0.00 | 0.00 | 0.00 | 82 | 100.7 |
| 20260506024702 | 77 | 242 | 1.0 | 4.0 | 0.00 | 0.00 | 0.00 | 81 | 100.7 |
| 20260506024202 | 77 | 213 | 3.0 | 5.0 | 0.00 | 0.00 | 0.00 | 81 | 100.7 |
| 20260506023702 | 78 | 212 | 2.0 | 6.0 | 0.00 | 0.00 | 0.00 | 80 | 100.7 |
| 20260506023203 | 78 | 180 | 2.0 | 4.0 | 0.00 | 0.00 | 0.00 | 80 | 100.7 |
| 20260506022703 | 78 | 203 | 3.0 | 4.0 | 0.00 | 0.00 | 0.00 | 80 | 100.6 |
| 20260506022202 | 78 | 185 | 1.0 | 7.0 | 0.00 | 0.00 | 0.00 | 79 | 100.6 |
| 20260506021702 | 78 | 196 | 3.0 | 5.0 | 0.00 | 0.00 | 0.00 | 79 | 100.6 |
| 20260506021203 | 78 | 174 | 1.0 | 3.0 | 0.00 | 0.00 | 0.00 | 79 | 100.6 |
| 20260506020702 | 78 | 186 | 4.0 | 5.0 | 0.00 | 0.00 | 0.00 | 79 | 100.6 |
| 20260506020203 | 78 | 187 | 2.0 | 6.0 | 0.00 | 0.00 | 0.00 | 79 | 100.6 |
| 20260506015702 | 78 | 164 | 0.0 | 6.0 | 0.00 | 0.00 | 0.00 | 79 | 100.6 |
| 20260506015202 | 78 | 182 | 4.0 | 6.0 | 0.00 | 0.00 | 0.00 | 78 | 100.6 |
| 20260506014202 | 79 | 177 | 2.0 | 4.0 | 0.00 | 0.00 | 0.00 | 78 | 100.6 |
| 20260506013702 | 79 | 183 | 1.0 | 6.0 | 0.00 | 0.00 | 0.00 | 78 | 100.6 |
| 20260506012702 | 79 | 225 | 2.0 | 4.0 | 0.00 | 0.00 | 0.00 | 77 | 100.6 |
| 20260506011202 | 80 | 185 | 2.0 | 5.0 | 0.00 | 0.00 | 0.00 | 76 | 100.6 |
| 20260506010702 | 80 | 204 | 4.0 | 6.0 | 0.00 | 0.00 | 0.00 | 76 | 100.6 |
| 20260506010203 | 80 | 196 | 2.0 | 6.0 | 0.00 | 0.00 | 0.00 | 75 | 100.6 |
| 20260506005702 | 80 | 200 | 1.0 | 5.0 | 0.00 | 0.00 | 0.00 | 74 | 100.6 |
| 20260506005202 | 81 | 171 | 0.0 | 4.0 | 0.00 | 0.00 | 0.00 | 73 | 100.6 |
| 20260506004203 | 81 | 198 | 3.0 | 4.0 | 0.00 | 0.00 | 0.00 | 71 | 100.6 |
| 20260506003703 | 81 | 238 | 3.0 | 5.0 | 0.00 | 0.00 | 0.00 | 70 | 100.5 |
| 20260506003202 | 81 | 225 | 2.0 | 5.0 | 0.00 | 0.00 | 0.00 | 69 | 100.5 |
| 20260506002702 | 81 | 225 | 2.0 | 6.0 | 0.00 | 0.00 | 0.00 | 69 | 100.5 |
| 20260506002202 | 81 | 247 | 4.0 | 6.0 | 0.00 | 0.00 | 0.00 | 69 | 100.5 |
| 20260506001702 | 81 | 181 | 5.0 | 6.0 | 0.00 | 0.00 | 0.00 | 69 | 100.5 |
| 20260506001203 | 82 | 235 | 2.0 | 5.0 | 0.00 | 0.00 | 0.00 | 69 | 100.5 |
| 20260506000702 | 82 | 227 | 3.0 | 6.0 | 0.00 | 0.00 | 0.00 | 69 | 100.5 |
| 20260506000204 | 81 | 231 | 2.0 | 4.0 | 0.00 | 0.00 | 0.00 | 69 | 100.5 |
| 20260505235703 | 82 | 190 | 8.0 | 8.0 | 0.00 | 0.00 | 0.00 | 69 | 100.5 |
| 20260505235202 | 82 | 201 | 6.0 | 8.0 | 0.00 | 0.00 | 0.00 | 69 | 100.5 |
| 20260505233703 | 82 | 229 | 2.0 | 7.0 | 0.00 | 0.00 | 0.00 | 69 | 100.5 |
| 20260505233202 | 82 | 189 | 6.0 | 8.0 | 0.00 | 0.00 | 0.00 | 69 | 100.5 |
| 20260505232202 | 82 | 221 | 3.0 | 8.0 | 0.00 | 0.00 | 0.00 | 69 | 100.5 |
| 20260505231202 | 82 | 109 | 2.0 | 6.0 | 0.00 | 0.00 | 0.00 | 68 | 100.5 |
| 20260505230703 | 82 | 198 | 4.0 | 10.0 | 0.00 | 0.00 | 0.00 | 68 | 100.5 |
| 20260505230202 | 82 | 198 | 2.0 | 11.0 | 0.00 | 0.00 | 0.00 | 68 | 100.5 |
| 20260505225701 | 82 | 199 | 4.0 | 4.0 | 0.00 | 0.00 | 0.00 | 67 | 100.5 |
| 20260505225202 | 83 | 227 | 4.0 | 7.0 | 0.00 | 0.00 | 0.00 | 66 | 100.5 |
| 20260505224702 | 83 | 217 | 4.0 | 6.0 | 0.00 | 0.00 | 0.00 | 65 | 100.5 |
| 20260505223702 | 83 | 250 | 2.0 | 8.0 | 0.00 | 0.00 | 0.00 | 65 | 100.5 |
| 20260505223202 | 83 | 200 | 4.0 | 6.0 | 0.00 | 0.00 | 0.00 | 65 | 100.5 |
| 20260505222702 | 82 | 207 | 3.0 | 6.0 | 0.00 | 0.00 | 0.00 | 65 | 100.5 |
| 20260505222202 | 82 | 189 | 4.0 | 9.0 | 0.00 | 0.00 | 0.00 | 65 | 100.5 |
| 20260505221702 | 82 | 192 | 5.0 | 9.0 | 0.00 | 0.00 | 0.00 | 66 | 100.5 |
| 20260505220702 | 82 | 205 | 2.0 | 9.0 | 0.00 | 0.00 | 0.00 | 66 | 100.5 |
| 20260505215702 | 83 | 177 | 8.0 | 12.0 | 0.00 | 0.00 | 0.00 | 65 | 100.5 |
| 20260505215202 | 83 | 192 | 5.0 | 11.0 | 0.00 | 0.00 | 0.00 | 65 | 100.5 |
| 20260505214702 | 83 | 200 | 7.0 | 12.0 | 0.00 | 0.00 | 0.00 | 65 | 100.6 |
| 20260505214203 | 83 | 236 | 3.0 | 12.0 | 0.00 | 0.00 | 0.00 | 65 | 100.6 |
| 20260505213702 | 83 | 232 | 5.0 | 11.0 | 0.00 | 0.00 | 0.00 | 64 | 100.6 |
| 20260505213202 | 82 | 230 | 4.0 | 8.0 | 0.00 | 0.00 | 0.00 | 66 | 100.6 |
| 20260505212702 | 82 | 206 | 6.0 | 8.0 | 0.00 | 0.00 | 0.00 | 66 | 100.6 |
| 20260505212203 | 82 | 240 | 5.0 | 17.0 | 0.00 | 0.00 | 0.00 | 66 | 100.6 |
| 20260505211702 | 83 | 183 | 6.0 | 14.0 | 0.00 | 0.00 | 0.00 | 65 | 100.6 |
| 20260505211202 | 82 | 180 | 2.0 | 13.0 | 0.00 | 0.00 | 0.00 | 67 | 100.6 |
| 20260505210702 | 82 | 197 | 5.0 | 12.0 | 0.00 | 0.00 | 0.00 | 67 | 100.6 |
| 20260505210202 | 82 | 183 | 3.0 | 10.0 | 0.00 | 0.00 | 0.00 | 67 | 100.6 |
| 20260505205702 | 82 | 181 | 4.0 | 13.0 | 0.00 | 0.00 | 0.00 | 67 | 100.6 |
| 20260505205202 | 82 | 193 | 2.0 | 13.0 | 0.00 | 0.00 | 0.00 | 67 | 100.6 |
| 20260505203702 | 82 | 167 | 1.0 | 12.0 | 0.00 | 0.00 | 0.00 | 68 | 100.6 |
| 20260505202703 | 81 | 231 | 4.0 | 11.0 | 0.00 | 0.00 | 0.00 | 68 | 100.7 |
| 20260505202202 | 82 | 158 | 4.0 | 10.0 | 0.00 | 0.00 | 0.00 | 69 | 100.7 |
| 20260505201702 | 81 | 205 | 3.0 | 12.0 | 0.00 | 0.00 | 0.00 | 69 | 100.7 |
| 20260505201202 | 81 | 243 | 4.0 | 6.0 | 0.00 | 0.00 | 0.00 | 69 | 100.7 |
| 20260505200702 | 81 | 188 | 4.0 | 8.0 | 0.00 | 0.00 | 0.00 | 70 | 100.7 |
| 20260505200202 | 81 | 175 | 8.0 | 11.0 | 0.00 | 0.00 | 0.00 | 69 | 100.7 |
| 20260505195202 | 81 | 219 | 6.0 | 14.0 | 0.00 | 0.00 | 0.00 | 69 | 100.7 |
| 20260505194703 | 82 | 189 | 7.0 | 14.0 | 0.00 | 0.00 | 0.00 | 68 | 100.7 |
| 20260505194202 | 82 | 224 | 6.0 | 8.0 | 0.00 | 0.00 | 0.00 | 68 | 100.7 |
| 20260505193703 | 82 | 221 | 8.0 | 12.0 | 0.00 | 0.00 | 0.00 | 68 | 100.7 |
| 20260505192702 | 81 | 203 | 7.0 | 11.0 | 0.00 | 0.00 | 0.00 | 67 | 100.7 |
| 20260505192203 | 81 | 239 | 4.0 | 9.0 | 0.00 | 0.00 | 0.00 | 67 | 100.7 |
| 20260505191702 | 81 | 239 | 3.0 | 6.0 | 0.00 | 0.00 | 0.00 | 68 | 100.7 |
| 20260505191202 | 81 | 213 | 4.0 | 6.0 | 0.00 | 0.00 | 0.00 | 68 | 100.7 |
| 20260505190703 | 80 | 252 | 6.0 | 6.0 | 0.00 | 0.00 | 0.00 | 68 | 100.7 |
| 20260505190202 | 80 | 211 | 1.0 | 8.0 | 0.00 | 0.00 | 0.00 | 70 | 100.7 |
| 20260505185702 | 80 | 233 | 3.0 | 6.0 | 0.00 | 0.00 | 0.00 | 68 | 100.7 |
| 20260505185202 | 79 | 234 | 3.0 | 6.0 | 0.00 | 0.00 | 0.00 | 70 | 100.7 |
| 20260505184702 | 80 | 203 | 4.0 | 8.0 | 0.00 | 0.00 | 0.00 | 70 | 100.7 |
| 20260505184202 | 79 | 247 | 3.0 | 5.0 | 0.00 | 0.00 | 0.00 | 72 | 100.7 |
| 20260505183702 | 79 | 176 | 5.0 | 7.0 | 0.00 | 0.00 | 0.00 | 72 | 100.7 |
| 20260505183202 | 78 | 213 | 3.0 | 6.0 | 0.00 | 0.00 | 0.00 | 72 | 100.8 |
| 20260505182703 | 77 | 206 | 5.0 | 9.0 | 0.00 | 0.00 | 0.00 | 73 | 100.8 |
| 20260505182202 | 77 | 238 | 5.0 | 8.0 | 0.00 | 0.00 | 0.00 | 74 | 100.8 |
| 20260505181702 | 77 | 235 | 2.0 | 8.0 | 0.00 | 0.00 | 0.00 | 74 | 100.8 |
| 20260505181202 | 76 | 180 | 5.0 | 7.0 | 0.00 | 0.00 | 0.00 | 76 | 100.8 |
| 20260505180702 | 76 | 219 | 2.0 | 8.0 | 0.00 | 0.00 | 0.00 | 76 | 100.8 |
| 20260505180202 | 76 | 213 | 5.0 | 7.0 | 0.00 | 0.00 | 0.00 | 76 | 100.8 |
| 20260505175702 | 76 | 239 | 6.0 | 8.0 | 0.00 | 0.00 | 0.00 | 76 | 100.8 |
| 20260505175203 | 76 | 227 | 3.0 | 7.0 | 0.00 | 0.00 | 0.00 | 77 | 100.8 |
| 20260505174702 | 76 | 209 | 5.0 | 7.0 | 0.00 | 0.00 | 0.00 | 78 | 100.8 |
| 20260505173703 | 75 | 247 | 4.0 | 6.0 | 0.00 | 0.00 | 0.00 | 78 | 100.8 |
| 20260505173202 | 75 | 261 | 4.0 | 11.0 | 0.00 | 0.00 | 0.00 | 78 | 100.8 |
| 20260505172702 | 75 | 206 | 4.0 | 6.0 | 0.00 | 0.00 | 0.00 | 79 | 100.8 |
| 20260505172202 | 75 | 215 | 4.0 | 9.0 | 0.00 | 0.00 | 0.00 | 80 | 100.8 |
| 20260505171702 | 74 | 243 | 3.0 | 6.0 | 0.00 | 0.00 | 0.00 | 81 | 100.8 |
| 20260505170702 | 74 | 211 | 5.0 | 9.0 | 0.00 | 0.00 | 0.00 | 81 | 100.8 |
| 20260505170202 | 74 | 168 | 2.0 | 4.0 | 0.00 | 0.00 | 0.00 | 81 | 100.8 |
| 20260505165702 | 74 | 260 | 2.0 | 6.0 | 0.00 | 0.00 | 0.00 | 81 | 100.8 |
| 20260505165202 | 74 | 227 | 5.0 | 7.0 | 0.00 | 0.00 | 0.00 | 81 | 100.8 |